Location: Newark
(48.5667°N, 12.8167°E)
Time: 08:43:46
(UTC+00:00)

METEOR M2 - Pass Details

Date: 18 November 2019
Orbit: 818 x 828 km, 98.5° (Epoch: 13 December)

Event Time Altitude Azimuth Distance (km) Brightness Sun altitude
Exits shadow 16:54:36 11° 35° (NE) 2,338 ? -14.4°
Drops below altitude 10° 16:55:20 10° 27° (NNE) 2,437 ? -14.6°
Sets 16:59:07 0° 360° (N) 3,373 ? -15.2°
